User: anonymous   Login
Location: ????????
(38.4362°N, 22.8767°E)
Time: 03:34:59
(UTC+00:00)
Language:

Cosmos 1908 - Orbit

View from above orbital plane
View from above orbital plane
View from above satellite
View from above satellite

Ground track
Ground track

The orbit data is extracted from the following two-line orbital elements,

1 18748U 88001A   24164.71624344  .00012160  00000-0  40954-3 0  9998
2 18748  82.4646  46.9665 0011409  42.9965 317.2165 15.30568825992475
Epoch (UTC): 12 June 2024 17:11:23
Eccentricity: 0.0011409
inclination: 82.4646°
perigee height: 466 km
apogee height: 482 km
right ascension of ascending node: 46.9665°
argument of perigee: 42.9965°
revolutions per day: 15.30568825
mean anomaly at epoch: 317.2165°
orbit number at epoch: 99247

The dashed part of the orbit path shows where the satellite is in the earth's shadow,  

DLR